STARLINK-34551

Last updated on Sat Jul 19 2025 00:02:08 GMT+0000 (Coordinated Universal Time)

1 64682U 25139U 25199.58335648 -.02077195 00000+0 -31503-1 0 9999 2 64682 53.1597 137.7045 0001116 73.3042 344.0214 15.57167552 4380
UTC large
Height (km)
Speed (km/s)
/
Latitude / Longitude
Inclination (degrees)
Orbital Period (minutes)
Azimuth
Elevation
Range (km)
Doppler Factor

Next 0 passes for location: London (51.5072 / 0.1276)

Sorry there are no passes over London.